Port Weller, Ontario

9:02 PM EST on December 05, 2016 (GMT -0500)
Port Weller

Weather History for CWWZ - December, 2012

Change the Weather History Date:

Friday, December 7, 2012

  Actual Average (CYSN) Record (CYSN)
Temperature  
Mean Temperature 40 °F -  
Max Temperature 46 °F 38 °F 55 °F (2004)
Min Temperature 35 °F 29 °F 12 °F (2008)
Degree Days  
Heating Degree Days 24    
Moisture  
Dew Point 36 °F    
Average Humidity 76    
Maximum Humidity 93    
Minimum Humidity 58    
Precipitation  
Precipitation 0.00 in - - ()
Sea Level Pressure  
Sea Level Pressure 29.96 in    
Wind  
Wind Speed 3 mph ()    
Max Wind Speed 9 mph    
Max Gust Speed -    
Averages and records for this station are not official NWS values.
T = Trace of Precipitation, MM = Missing Value Source: Averaged Metar Reports

Daily Weather History Graph

Daily Weather History Graph

Search for Another Location

Airport or City:

Trip Planner

Search our weather history database for the weather conditions in past years. The results will help you decide how hot, cold, wet, or windy it might be!

Date:

Astronomy

Dec. 07, 2012 Rise Set
Actual Time 7:35 AM EST 4:41 PM EST
Civil Twilight 7:03 AM EST 5:13 PM EST
Nautical Twilight 6:27 AM EST 5:49 PM EST
Astronomical Twilight 5:53 AM EST 6:23 PM EST
Moon 12:43 AM EST (12/7) 12:45 PM EST (12/7)
Length of Visible Light 10h 10m
Length of Day
9h 05m
Last Quarter, 39% of the Moon is Illuminated
Dec 7
Last Quarter
Dec 13
New
Dec 20
First Quarter
Dec 28
Full
Jan 4
Last Quarter

Hourly Weather History & Observations

Time (EST) Temp. Windchill Dew Point Humidity Pressure Visibility Wind Dir Wind Speed Gust Speed Precip Events Conditions
12:00 AM 36.7 °F 32.9 °F 27.5 °F 69% 30.02 in - South 4.6 mph - N/A   Unknown
1:00 AM 36 °F - 27 °F 61% 30.01 in - SW 3.5 mph - -  
1:00 AM 36.3 °F 33.7 °F 27.3 °F 70% 30.01 in - SW 3.5 mph - N/A   Unknown
2:00 AM 36.5 °F - 28.8 °F 74% 30.01 in - WSW 1.2 mph - N/A   Unknown
3:00 AM 37.2 °F 34.7 °F 29.5 °F 74% 30.00 in - SSE 3.5 mph - N/A   Unknown
4:00 AM 39 °F - 29 °F 58% 29.98 in - South 4.6 mph - -  
4:00 AM 38.8 °F 35.4 °F 29.5 °F 69% 29.98 in - South 4.6 mph - N/A   Unknown
5:00 AM 40.5 °F 37.3 °F 30.9 °F 69% 29.96 in - South 4.6 mph - N/A   Unknown
6:00 AM 41.7 °F 36.1 °F 31.8 °F 68% 29.96 in - South 9.2 mph - N/A   Unknown
7:00 AM 42 °F - 32 °F 58% 29.96 in - South 5.8 mph - -  
7:00 AM 41.5 °F 37.8 °F 31.8 °F 68% 29.96 in - South 5.8 mph - N/A   Unknown
8:00 AM 41.0 °F - 35.6 °F 81% 29.97 in - South 2.3 mph - N/A   Unknown
9:00 AM 43.0 °F 40.3 °F 35.6 °F 75% 29.96 in - South 4.6 mph - N/A   Unknown
10:00 AM 45 °F - 36 °F 61% 29.97 in - SSW 3.5 mph - -  
10:00 AM 44.8 °F 43.3 °F 36.0 °F 71% 29.97 in - SSW 3.5 mph - N/A   Unknown
11:00 AM 43.9 °F 42.3 °F 37.8 °F 79% 29.98 in - WSW 3.5 mph - N/A   Unknown
12:00 PM 44.8 °F 42.4 °F 39.0 °F 80% 29.96 in - West 4.6 mph - N/A   Unknown
1:00 PM 46 °F - 38 °F 64% 29.94 in - West 2.3 mph - -  
1:00 PM 46.0 °F - 37.8 °F 73% 29.94 in - West 2.3 mph - N/A   Unknown
2:00 PM 45.7 °F - 38.3 °F 75% 29.92 in - WSW 1.2 mph - N/A   Unknown
3:00 PM 44.6 °F - 39.2 °F 81% 29.92 in - SE 1.2 mph - N/A   Unknown
4:00 PM 45 °F - 40 °F 76% 29.94 in - SW 2.3 mph - -  
4:00 PM 45.0 °F - 39.9 °F 82% 29.94 in - SW 2.3 mph - N/A   Unknown
5:00 PM 44.6 °F - 40.1 °F 84% 29.95 in - South 2.3 mph - N/A   Unknown
6:00 PM 44.8 °F - 39.9 °F 83% 29.96 in - South 1.2 mph - N/A   Unknown
7:00 PM 43 °F - 41 °F 89% 29.96 in - East 3.5 mph - -  
8:00 PM 43.5 °F 40.1 °F 41.0 °F 91% 29.96 in - NE 5.8 mph - N/A   Unknown
9:00 PM 43.3 °F 40.7 °F 40.8 °F 91% 29.96 in - East 4.6 mph - N/A   Unknown
10:00 PM 43 °F - 41 °F 92% 29.94 in - ENE 5.8 mph - -  
10:00 PM 43.2 °F 39.7 °F 41.4 °F 93% 29.94 in - ENE 5.8 mph - N/A   Unknown
11:00 PM 42.6 °F 40.9 °F 39.9 °F 90% 29.94 in - ESE 3.5 mph - N/A   Unknown